Deptford, New Jersey, United States
Lat: 39.83N, Lon: 75.13W
Wx Zone: NJZ017
Local Info
Past Weather Observations for Saturday, April 23, 2016

NOTE: This archive is for the closest National Weather Service station to Deptford. Information may differ from the station used for current weather conditions.

Click here for Long-term Archive

Time Weather Temperature Dewpoint Humidity Pressure Winds Precip Visibility
23:54
Clear
52°F / 11°C 21°F / -6°C 30% 30.01 in
(1016 mb)
N 12.7 mph
(N 20 kph)
- 10SM
22:54
Clear
54°F / 12°C 25°F / -4°C 33% 30.01 in
(1016 mb)
N 15 mph
(N 24 kph)
- 10SM
21:54
Partly Cloudy
55°F / 13°C 30°F / -1°C 38% 29.98 in
(1015 mb)
NNW 11.5 mph
(NNW 19 kph)
- 10SM
20:54
Partly Cloudy
57°F / 14°C 30°F / -1°C 36% 29.98 in
(1015 mb)
NNW 12.7 mph
(NNW 20 kph)
- 10SM
19:54
Partly Cloudy
59°F / 15°C 34°F / 1°C 39% 29.95 in
(1014 mb)
NNW 17.3 mph
(NNW 28 kph)
- 10SM
18:54
Partly Cloudy
61°F / 16°C 36°F / 2°C 39% 29.92 in
(1013 mb)
NNW 16.1 mph
(NNW 26 kph)
- 10SM
17:54
Partly Cloudy
64°F / 18°C 36°F / 2°C 34% 29.92 in
(1013 mb)
NNW 20.7 mph
(NNW 33 kph)
- 10SM
16:54
Partly Cloudy
66°F / 19°C 36°F / 2°C 32% 29.89 in
(1012 mb)
NNW 18.4 mph
(NNW 30 kph)
- 10SM
15:54
Mostly Cloudy
66°F / 19°C 39°F / 4°C 37% 29.89 in
(1012 mb)
NNW 16.1 mph
(NNW 26 kph)
- 10SM
14:54
Mostly Cloudy
70°F / 21°C 45°F / 7°C 40% 29.86 in
(1011 mb)
NNW 17.3 mph
(NNW 28 kph)
- 10SM
13:54
Mostly Cloudy
66°F / 19°C 46°F / 8°C 49% 29.86 in
(1011 mb)
NNW 15 mph
(NNW 24 kph)
- 10SM
12:54
Mostly Cloudy
64°F / 18°C 50°F / 10°C 60% 29.89 in
(1012 mb)
N 16.1 mph
(N 26 kph)
- 10SM
11:54
Overcast
63°F / 17°C 54°F / 12°C 73% 29.89 in
(1012 mb)
NNW 12.7 mph
(NNW 20 kph)
0.01 in
(0.25 mm)
10SM
11:02
Overcast
Light Rain
61°F / 16°C 54°F / 12°C 77% 29.89 in
(1012 mb)
N 15 mph
(N 24 kph)
0.00 in
(0.00 mm)
10SM
10:54
Overcast
Light Rain
61°F / 16°C 54°F / 12°C 77% 29.89 in
(1012 mb)
NNW 18.4 mph
(NNW 30 kph)
0.00 in
(0.00 mm)
10SM
10:37
Overcast
Light Rain
63°F / 17°C 55°F / 13°C 77% 29.89 in
(1012 mb)
NNW 15 mph
(NNW 24 kph)
0.00 in
(0.00 mm)
10SM
10:19
Overcast
Light Rain
63°F / 17°C 55°F / 13°C 77% 29.89 in
(1012 mb)
NNW 10.4 mph
(NNW 17 kph)
0.00 in
(0.00 mm)
10SM
09:54
Overcast
Light Rain
63°F / 17°C 55°F / 13°C 77% 29.89 in
(1012 mb)
N 11.5 mph
(N 19 kph)
0.03 in
(0.76 mm)
7SM
09:04
Overcast
Light Rain
61°F / 16°C 55°F / 13°C 83% 29.86 in
(1011 mb)
N 13.8 mph
(N 22 kph)
0.00 in
(0.00 mm)
7SM
08:54
Overcast
Light Rain
61°F / 16°C 55°F / 13°C 83% 29.86 in
(1011 mb)
N 13.8 mph
(N 22 kph)
0.04 in
(1.02 mm)
6SM
08:37
Overcast
Light Rain
61°F / 16°C 55°F / 13°C 83% 29.86 in
(1011 mb)
N 12.7 mph
(N 20 kph)
0.04 in
(1.02 mm)
5SM
08:10
Overcast
Rain
63°F / 17°C 55°F / 13°C 77% 29.83 in
(1010 mb)
N 11.5 mph
(N 19 kph)
0.00 in
(0.00 mm)
4SM
08:01
Overcast
Light Rain
63°F / 17°C 55°F / 13°C 77% 29.83 in
(1010 mb)
N 15 mph
(N 24 kph)
0.00 in
(0.00 mm)
5SM
07:54
Overcast
Light Rain
63°F / 17°C 55°F / 13°C 77% 29.83 in
(1010 mb)
N 12.7 mph
(N 20 kph)
0.00 in
(0.00 mm)
10SM
06:54
Overcast
64°F / 18°C 57°F / 14°C 78% 29.83 in
(1010 mb)
N 8.1 mph
(N 13 kph)
- 10SM
06:07
Overcast
64°F / 18°C 59°F / 15°C 83% 29.8 in
(1009 mb)
NW 4.6 mph
(NW 7 kph)
- 7SM
05:54
Overcast
Fog And Mist
63°F / 17°C 61°F / 16°C 94% 29.8 in
(1009 mb)
Calm - 5SM
04:54
Overcast
Fog And Mist
63°F / 17°C 59°F / 15°C 88% 29.77 in
(1008 mb)
SW 4.6 mph
(SW 7 kph)
- 5SM
04:37
Mostly Cloudy
Fog And Mist
63°F / 17°C 59°F / 15°C 88% 29.77 in
(1008 mb)
SSW 5.8 mph
(SSW 9 kph)
- 5SM
03:54
Mostly Cloudy
63°F / 17°C 59°F / 15°C 88% 29.77 in
(1008 mb)
Calm - 7SM
03:25
Overcast
63°F / 17°C 59°F / 15°C 88% 29.8 in
(1009 mb)
S 3.5 mph
(S 6 kph)
- 7SM
03:04
Overcast
63°F / 17°C 61°F / 16°C 94% 29.8 in
(1009 mb)
SSW 3.5 mph
(SSW 6 kph)
- 8SM
02:54
Overcast
63°F / 17°C 61°F / 16°C 94% 29.8 in
(1009 mb)
SW 4.6 mph
(SW 7 kph)
0.03 in
(0.76 mm)
8SM
02:27
Overcast
Light Rain
63°F / 17°C 61°F / 16°C 94% 29.8 in
(1009 mb)
SSW 4.6 mph
(SSW 7 kph)
0.03 in
(0.76 mm)
7SM
02:19
Overcast
Light Rain
63°F / 17°C 61°F / 16°C 94% 29.8 in
(1009 mb)
SSW 6.9 mph
(SSW 11 kph)
0.02 in
(0.51 mm)
4SM
02:00
Overcast
Light Rain
64°F / 18°C 61°F / 16°C 88% 29.8 in
(1009 mb)
SW 6.9 mph
(SW 11 kph)
0.00 in
(0.00 mm)
8SM
01:54
Overcast
64°F / 18°C 61°F / 16°C 88% 29.8 in
(1009 mb)
SW 6.9 mph
(SW 11 kph)
- 10SM
01:22
Overcast
63°F / 17°C 59°F / 15°C 88% 29.8 in
(1009 mb)
S 6.9 mph
(S 11 kph)
- 10SM
00:54
Overcast
64°F / 18°C 59°F / 15°C 83% 29.83 in
(1010 mb)
S 5.8 mph
(S 9 kph)
0.00 in
(0.00 mm)
10SM
Time Weather Temperature Dewpoint Humidity Pressure Winds Precip Visibility


Weather for websites

WeatherForYou.com, LLC is not responsible for any damages or problems caused by this service. Current weather conditions are obtained from the closest station including government and personal stations which may have varying degrees of accuracy. Weather forecasts are derived from the NOAA NDFD. Like all things, this site belongs to Jesus Christ... He just trusts us to maintain it. If you have any questions or comments email webmaster@weatherforyou.com

Copyright © 2016, WeatherForYou.com LLC. All rights reserved.